Date String (YYYY-MM-DD hh:mm:ss) UTC,Instrument flags,Ambient pressure (hPa),Sample flow (lpm),Bypass flow (lpm),Sample temperature (°C),Ambient temperature (°C),ASC tube jacket temperature (°C),LED temperature (°C),Box temperature (°C),Sample RH (%),Span deviation,Mass concentration (μg/m³),Mass concentration (μg/m³),Mass concentration (μg/m³)
DateTimeUTC,F1_M11,P_M11,Q1_M11,Q2_M11,T1_M11,T2_M11,T3_M11,T4_M11,T5_M11,U1_M11,ZSPAN_M11,X0_M11,X2_M11,X1_M11
2023-01-16 12:00:00,,0810.7,5.01,0.00,22.5,22.2,00.0,31.3,24.4,15.2,0000.0,0007.57,0003.82,0003.67
2023-01-16 12:01:00,,0810.8,5.00,0.00,22.6,22.8,00.0,31.3,24.6,14.4,0000.0,0007.27,0003.60,0003.46
2023-01-16 12:02:00,,0810.7,4.99,0.00,22.7,22.5,00.0,31.4,24.6,14.1,0000.0,0006.76,0003.37,0003.24
2023-01-16 12:03:00,,0810.7,5.00,0.00,22.7,22.0,00.0,31.4,24.5,14.3,0000.0,0005.36,0003.17,0003.00
2023-01-16 12:04:00,,0810.6,5.01,0.00,22.6,21.7,00.0,31.4,24.4,15.0,0000.0,0004.51,0002.94,0002.74
2023-01-16 12:05:00,,0810.6,5.00,0.00,22.6,21.5,00.0,31.4,24.4,14.6,0000.0,0003.74,0002.67,0002.48
2023-01-16 12:06:00,,0810.6,5.00,0.00,22.6,21.3,00.0,31.4,24.3,14.2,0000.0,0003.11,0002.30,0002.13
2023-01-16 12:07:00,,0810.6,5.01,0.00,22.6,21.2,00.0,31.4,24.3,14.4,0000.0,0002.85,0002.05,0001.87
2023-01-16 12:08:00,,0810.6,4.99,0.00,22.6,21.1,00.0,31.4,24.3,14.1,0000.0,0002.36,0001.73,0001.59
2023-01-16 12:09:00,,0810.7,4.99,0.00,22.5,21.1,00.0,31.4,24.3,14.2,0000.0,0001.90,0001.38,0001.25
2023-01-16 12:10:00,,0810.7,5.00,0.00,22.5,21.2,00.0,31.4,24.3,14.4,0000.0,0001.67,0001.17,0001.03
2023-01-16 12:11:00,,0810.8,5.01,0.00,22.5,21.2,00.0,31.4,24.3,14.7,0000.0,0001.76,0001.24,0001.08
2023-01-16 12:12:00,,0810.8,5.00,0.00,22.5,21.2,00.0,31.4,24.3,14.8,0000.0,0002.04,0001.51,0001.33
2023-01-16 12:13:00,,0810.8,5.00,0.00,22.5,21.1,00.0,31.4,24.2,14.7,0000.0,0002.37,0001.79,0001.60
2023-01-16 12:14:00,,0810.8,4.99,0.00,22.5,21.1,00.0,31.4,24.2,14.1,0000.0,0002.64,0001.99,0001.79
2023-01-16 12:15:00,,0810.7,5.01,0.00,22.5,21.1,00.0,31.4,24.2,13.7,0000.0,0002.75,0002.05,0001.84
2023-01-16 12:16:00,,0810.7,4.99,0.00,22.5,20.9,00.0,31.4,24.1,13.4,0000.0,0002.76,0002.02,0001.82
2023-01-16 12:17:00,,0810.7,4.99,0.00,22.4,20.7,00.0,31.4,24.0,13.2,0000.0,0002.77,0002.02,0001.84
2023-01-16 12:18:00,,0810.8,5.00,0.00,22.4,20.7,00.0,31.4,24.0,13.1,0000.0,0002.77,0001.95,0001.76
2023-01-16 12:19:00,,0810.8,5.00,0.00,22.4,20.7,00.0,31.4,24.0,13.4,0000.0,0002.79,0001.96,0001.76
2023-01-16 12:20:00,,0810.9,5.00,0.00,22.3,20.6,00.0,31.3,24.0,13.5,0000.0,0002.97,0002.01,0001.81
2023-01-16 12:21:00,,0810.9,5.01,0.00,22.3,20.7,00.0,31.3,23.9,13.2,0000.0,0002.97,0001.99,0001.79
2023-01-16 12:22:00,,0810.9,4.99,0.00,22.3,20.9,00.0,31.3,24.0,12.6,0000.0,0002.80,0001.82,0001.63
2023-01-16 12:23:00,,0810.8,5.01,0.00,22.4,21.9,00.0,31.3,24.2,12.2,0000.0,0002.47,0001.56,0001.39
2023-01-16 12:24:00,,0810.8,4.99,0.00,22.5,22.8,00.0,31.3,24.5,11.6,0000.0,0002.19,0001.30,0001.11
2023-01-16 12:25:00,,0810.8,4.99,0.00,22.6,22.9,00.0,31.3,24.6,11.3,0000.0,0001.90,0001.09,0000.92
2023-01-16 12:26:00,,0810.9,4.98,0.00,22.6,22.5,00.0,31.3,24.6,11.6,0000.0,0001.72,0000.96,0000.81
2023-01-16 12:27:00,,0810.9,5.00,0.00,22.6,22.1,00.0,31.4,24.5,11.8,0000.0,0001.60,0000.92,0000.77
2023-01-16 12:28:00,,0810.9,5.00,0.00,22.6,21.9,00.0,31.4,24.4,11.8,0000.0,0001.65,0000.97,0000.82
2023-01-16 12:29:00,,0810.9,4.99,0.00,22.6,21.6,00.0,31.4,24.4,11.8,0000.0,0001.68,0001.05,0000.90
2023-01-16 12:30:00,,0811.0,5.01,0.00,22.6,21.4,00.0,31.4,24.3,11.8,0000.0,0001.82,0001.12,0000.94
2023-01-16 12:31:00,,0811.0,5.00,0.00,22.6,21.2,00.0,31.4,24.3,11.9,0000.0,0002.11,0001.13,0000.94
2023-01-16 12:32:00,,0810.9,5.02,0.00,22.6,21.2,00.0,31.4,24.3,11.6,0000.0,0002.11,0001.10,0000.92
2023-01-16 12:33:00,,0811.0,5.01,0.00,22.6,21.2,00.0,31.4,24.3,11.0,0000.0,0002.06,0001.07,0000.89
2023-01-16 12:34:00,,0811.0,5.00,0.00,22.6,21.2,00.0,31.4,24.3,10.9,0000.0,0002.01,0001.05,0000.88
2023-01-16 12:35:00,,0811.0,4.99,0.00,22.5,21.2,00.0,31.4,24.3,11.1,0000.0,0002.00,0001.07,0000.92
2023-01-16 12:36:00,,0811.0,5.00,0.00,22.5,21.1,00.0,31.4,24.3,11.0,0000.0,0002.05,0001.11,0000.95
2023-01-16 12:37:00,,0810.9,5.00,0.00,22.5,21.1,00.0,31.4,24.2,10.9,0000.0,0002.07,0001.11,0000.95
2023-01-16 12:38:00,,0810.9,5.00,0.00,22.5,21.1,00.0,31.4,24.2,10.7,0000.0,0001.97,0001.06,0000.91
2023-01-16 12:39:00,,0810.9,5.01,0.00,22.5,21.1,00.0,31.4,24.2,10.9,0000.0,0001.87,0000.97,0000.84
2023-01-16 12:40:00,,0810.8,5.01,0.00,22.5,21.0,00.0,31.4,24.1,10.8,0000.0,0001.64,0000.84,0000.73
2023-01-16 12:41:00,,0810.9,5.01,0.00,22.4,21.0,00.0,31.4,24.1,10.8,0000.0,0001.39,0000.70,0000.62
2023-01-16 12:42:00,,0810.9,4.98,0.00,22.4,21.0,00.0,31.4,24.1,11.3,0000.0,0000.86,0000.57,0000.50
2023-01-16 12:43:00,,0810.8,4.99,0.00,22.4,20.9,00.0,31.4,24.1,11.2,0000.0,0000.69,0000.47,0000.42
2023-01-16 12:44:00,,0810.7,5.00,0.00,22.4,20.9,00.0,31.4,24.1,10.4,0000.0,0000.60,0000.41,0000.37
2023-01-16 12:45:00,,0810.8,5.00,0.00,22.4,20.8,00.0,31.3,24.0,10.1,0000.0,0000.56,0000.38,0000.33
2023-01-16 12:46:00,,0810.8,5.00,0.00,22.4,21.0,00.0,31.3,24.1,10.8,0000.0,0000.50,0000.33,0000.29
2023-01-16 12:47:00,,0810.8,5.03,0.00,22.4,21.9,00.0,31.3,24.3,10.8,0000.0,0000.44,0000.29,0000.26
2023-01-16 12:48:00,,0810.9,5.00,0.00,22.5,22.8,00.0,31.3,24.5,10.9,0000.0,0000.41,0000.27,0000.23
2023-01-16 12:49:00,,0811.0,4.99,0.00,22.7,22.9,00.0,31.3,24.7,11.6,0000.0,0000.43,0000.29,0000.25
2023-01-16 12:50:00,,0811.0,4.99,0.00,22.7,22.4,00.0,31.4,24.6,12.5,0000.0,0000.65,0000.44,0000.38
2023-01-16 12:51:00,,0811.0,4.98,0.00,22.7,22.0,00.0,31.4,24.5,13.4,0000.0,0000.97,0000.71,0000.63
2023-01-16 12:52:00,,0810.9,5.00,0.00,22.6,21.8,00.0,31.4,24.5,13.3,0000.0,0001.29,0000.97,0000.88
2023-01-16 12:53:00,,0810.9,5.00,0.00,22.7,21.6,00.0,31.4,24.4,13.0,0000.0,0001.56,0001.20,0001.10
2023-01-16 12:54:00,,0810.8,5.00,0.00,22.6,21.5,00.0,31.4,24.4,12.0,0000.0,0001.77,0001.36,0001.25
2023-01-16 12:55:00,,0810.9,5.00,0.00,22.6,21.4,00.0,31.5,24.4,11.1,0000.0,0001.85,0001.41,0001.30
2023-01-16 12:56:00,,0811.0,5.01,0.00,22.6,21.2,00.0,31.5,24.3,11.5,0000.0,0002.01,0001.50,0001.37
2023-01-16 12:57:00,,0810.9,5.02,0.00,22.6,21.0,00.0,31.5,24.2,11.0,0000.0,0002.09,0001.55,0001.41
2023-01-16 12:58:00,,0811.0,5.00,0.00,22.5,21.0,00.0,31.5,24.2,10.4,0000.0,0002.11,0001.57,0001.43
2023-01-16 12:59:00,,0811.0,5.01,0.00,22.5,21.0,00.0,31.5,24.2,10.7,0000.0,0002.10,0001.59,0001.46
